EWG188 EDXW-LIEO

Flight info

Callsign EWG188
Flight time N/A
Altitude 37000
Route OLDIP1B OLDIP DCT GIKOG DCT BASUM/N0452F360 DCT TIVUN/N0454F370 DCT EDISA Y852 NATOR N850 ODINA DCT TIDKA DCT OLBEK
Aircraft A319/M-SDE3FGHIRWY/LB1

Departure

Time 2026-05-07 13:21
Airport Westerland Sylt Airport (EDXW)

Arrival

Time N/A
Airport Olbia Costa Smeralda Airport (LIEO)
Time Latitude Longitude Altitude Speed Heading
2026-05-07 13:03 54.91386 8.33117 29 ft 0 kts 270°
2026-05-07 13:13 54.91386 8.33127 29 ft 4 kts 268°
2026-05-07 13:13 54.91388 8.33173 29 ft 4 kts 253°
2026-05-07 13:14 54.91399 8.33214 29 ft 4 kts 224°
2026-05-07 13:14 54.91419 8.33233 29 ft 4 kts 167°
2026-05-07 13:14 54.91427 8.33229 29 ft 0 kts 150°
2026-05-07 13:15 54.91424 8.33232 29 ft 2 kts 150°
2026-05-07 13:15 54.91396 8.33249 29 ft 9 kts 168°
2026-05-07 13:16 54.91309 8.33220 29 ft 15 kts 209°
2026-05-07 13:16 54.91209 8.33178 33 ft 14 kts 179°
2026-05-07 13:16 54.91110 8.33181 34 ft 15 kts 179°
2026-05-07 13:16 54.91003 8.33138 32 ft 17 kts 209°
2026-05-07 13:17 54.90893 8.33161 35 ft 17 kts 153°
2026-05-07 13:17 54.90773 8.33221 35 ft 19 kts 172°
2026-05-07 13:17 54.90636 8.33235 35 ft 21 kts 176°
2026-05-07 13:17 54.90487 8.33276 34 ft 23 kts 161°
2026-05-07 13:18 54.90351 8.33430 33 ft 25 kts 134°
2026-05-07 13:18 54.90266 8.33694 32 ft 26 kts 105°
2026-05-07 13:18 54.90237 8.34012 33 ft 27 kts 96°
2026-05-07 13:18 54.90256 8.34338 33 ft 28 kts 79°
2026-05-07 13:19 54.90290 8.34677 35 ft 29 kts 80°
2026-05-07 13:19 54.90326 8.35019 35 ft 24 kts 76°
2026-05-07 13:19 54.90435 8.35151 35 ft 21 kts 331°
2026-05-07 13:19 54.90453 8.35128 37 ft 0 kts 322°
2026-05-07 13:21 54.90584 8.34961 36 ft 58 kts 324°
2026-05-07 13:21 54.91112 8.34307 38 ft 126 kts 324°
2026-05-07 13:21 54.91933 8.33295 381 ft 150 kts 323°
2026-05-07 13:21 54.92503 8.32594 769 ft 155 kts 324°
2026-05-07 13:22 54.93423 8.31448 1276 ft 173 kts 323°
2026-05-07 13:22 54.94465 8.30147 1709 ft 196 kts 324°
2026-05-07 13:22 54.95627 8.28701 2194 ft 213 kts 324°
2026-05-07 13:22 54.96851 8.27180 2847 ft 218 kts 324°
2026-05-07 13:23 54.97958 8.25189 3228 ft 243 kts 297°
2026-05-07 13:23 54.98299 8.22224 3669 ft 262 kts 261°
2026-05-07 13:23 54.97554 8.19362 4503 ft 263 kts 225°
2026-05-07 13:23 54.96007 8.17747 5456 ft 264 kts 192°
2026-05-07 13:24 54.94196 8.17969 6338 ft 267 kts 156°
2026-05-07 13:24 54.92664 8.19803 7176 ft 271 kts 137°
2026-05-07 13:24 54.91270 8.22035 8016 ft 275 kts 135°
2026-05-07 13:24 54.89893 8.24381 8836 ft 279 kts 135°
2026-05-07 13:25 54.88502 8.26776 9666 ft 284 kts 135°
2026-05-07 13:25 54.87082 8.29196 10427 ft 288 kts 136°
2026-05-07 13:25 54.85628 8.31632 11160 ft 292 kts 136°
2026-05-07 13:25 54.84168 8.34046 11894 ft 296 kts 137°
2026-05-07 13:26 54.82663 8.36510 12638 ft 299 kts 137°
2026-05-07 13:26 54.81140 8.38995 13378 ft 302 kts 137°
2026-05-07 13:26 54.79597 8.41508 14072 ft 306 kts 137°
2026-05-07 13:26 54.78036 8.44048 14711 ft 310 kts 137°
2026-05-07 13:27 54.76454 8.46617 15352 ft 313 kts 137°
2026-05-07 13:27 54.74854 8.49215 15967 ft 317 kts 138°
2026-05-07 13:27 54.73234 8.51842 16591 ft 321 kts 138°
2026-05-07 13:27 54.71602 8.54483 17215 ft 324 kts 138°
2026-05-07 13:28 54.69946 8.57163 17845 ft 328 kts 138°
2026-05-07 13:28 54.68272 8.59867 18466 ft 331 kts 138°
2026-05-07 13:28 54.66582 8.62591 19009 ft 334 kts 138°
2026-05-07 13:28 54.64913 8.65415 19539 ft 338 kts 131°
2026-05-07 13:29 54.63593 8.68779 20065 ft 342 kts 117°
2026-05-07 13:29 54.62768 8.72637 20551 ft 347 kts 103°
2026-05-07 13:29 54.62494 8.76862 20671 ft 363 kts 88°
2026-05-07 13:29 54.62527 8.81298 20798 ft 378 kts 96°
2026-05-07 13:30 54.61800 8.85713 20925 ft 391 kts 117°
2026-05-07 13:30 54.60234 8.89603 21060 ft 403 kts 135°
2026-05-07 13:30 54.58038 8.92585 21222 ft 412 kts 152°
2026-05-07 13:30 54.55364 8.94375 21585 ft 415 kts 169°
2026-05-07 13:31 54.52488 8.94745 21988 ft 417 kts 183°
2026-05-07 13:31 54.49579 8.94522 22415 ft 420 kts 184°
2026-05-07 13:31 54.46654 8.94251 22838 ft 422 kts 184°
2026-05-07 13:31 54.43711 8.93951 23253 ft 425 kts 184°
2026-05-07 13:32 54.40748 8.93644 23662 ft 428 kts 184°
2026-05-07 13:32 54.37770 8.93345 24017 ft 430 kts 184°
2026-05-07 13:32 54.34769 8.93059 24365 ft 432 kts 184°
2026-05-07 13:32 54.31756 8.92778 24695 ft 435 kts 183°
2026-05-07 13:33 54.28724 8.92496 25019 ft 438 kts 183°
2026-05-07 13:33 54.25671 8.92212 25353 ft 441 kts 183°
2026-05-07 13:33 54.22603 8.91926 25690 ft 443 kts 183°
2026-05-07 13:33 54.19518 8.91636 26041 ft 445 kts 183°
2026-05-07 13:34 54.16417 8.91347 26356 ft 448 kts 183°
2026-05-07 13:34 54.10176 8.90785 27034 ft 450 kts 183°
2026-05-07 13:34 54.07082 8.90503 27352 ft 452 kts 183°
2026-05-07 13:35 54.03936 8.90211 27663 ft 454 kts 183°
2026-05-07 13:35 54.00770 8.89917 27949 ft 457 kts 183°
2026-05-07 13:35 53.97588 8.89621 28232 ft 459 kts 182°
2026-05-07 13:35 53.94392 8.89320 28539 ft 461 kts 182°
2026-05-07 13:36 53.91182 8.89018 28840 ft 462 kts 184°
2026-05-07 13:36 53.87979 8.88722 29325 ft 459 kts 184°
2026-05-07 13:36 53.84800 8.88433 29843 ft 456 kts 184°
2026-05-07 13:36 53.81634 8.88146 30278 ft 455 kts 183°
2026-05-07 13:37 53.78478 8.87861 30629 ft 454 kts 184°
2026-05-07 13:37 53.75322 8.87578 30958 ft 454 kts 183°
2026-05-07 13:37 53.72168 8.87297 31289 ft 454 kts 183°
2026-05-07 13:37 53.69009 8.87015 31618 ft 454 kts 184°
2026-05-07 13:38 53.65855 8.86726 31974 ft 453 kts 184°
2026-05-07 13:38 53.62711 8.86435 32354 ft 452 kts 184°
2026-05-07 13:38 53.59572 8.86146 32701 ft 452 kts 184°
2026-05-07 13:38 53.56431 8.85859 33037 ft 452 kts 184°
2026-05-07 13:39 53.53294 8.85575 33360 ft 452 kts 184°
2026-05-07 13:39 53.50158 8.85294 33692 ft 452 kts 184°
2026-05-07 13:39 53.47061 8.85018 34027 ft 451 kts 184°
2026-05-07 13:39 53.43921 8.84740 34321 ft 451 kts 184°
2026-05-07 13:40 53.40791 8.84462 34616 ft 451 kts 184°
2026-05-07 13:40 53.37657 8.84189 34882 ft 451 kts 184°
2026-05-07 13:40 53.34520 8.83915 35172 ft 450 kts 183°
2026-05-07 13:40 53.31396 8.83635 35461 ft 450 kts 184°
2026-05-07 13:41 53.28274 8.83352 35754 ft 449 kts 184°
2026-05-07 13:41 53.25159 8.83073 36045 ft 447 kts 184°
2026-05-07 13:41 53.22058 8.82797 36341 ft 446 kts 184°
2026-05-07 13:41 53.18960 8.82522 36599 ft 446 kts 184°
2026-05-07 13:42 53.15864 8.82242 36836 ft 446 kts 184°
2026-05-07 13:42 53.12766 8.81961 37032 ft 446 kts 184°
2026-05-07 13:42 53.09648 8.81680 37086 ft 450 kts 184°
2026-05-07 13:43 53.03324 8.81129 37083 ft 458 kts 184°
2026-05-07 13:43 52.96988 8.80582 37084 ft 459 kts 184°
2026-05-07 13:44 52.90607 8.80021 37083 ft 460 kts 184°
2026-05-07 13:44 52.84205 8.79458 37082 ft 461 kts 184°
2026-05-07 13:45 52.77807 8.78804 37078 ft 460 kts 188°
2026-05-07 13:45 52.71610 8.76300 37078 ft 459 kts 196°
2026-05-07 13:46 52.65455 8.73478 37075 ft 459 kts 196°
2026-05-07 13:46 52.59294 8.70687 37078 ft 459 kts 196°
2026-05-07 13:47 52.53129 8.67907 37079 ft 459 kts 196°
2026-05-07 13:47 52.46963 8.65126 37081 ft 459 kts 196°
2026-05-07 13:48 52.40797 8.62352 37080 ft 459 kts 196°
2026-05-07 13:48 52.34667 8.59606 37085 ft 460 kts 196°
2026-05-07 13:49 52.28503 8.56841 37085 ft 460 kts 196°
2026-05-07 13:49 52.22326 8.54076 37086 ft 460 kts 196°
2026-05-07 13:50 52.16158 8.51332 37074 ft 460 kts 196°
2026-05-07 13:50 52.09970 8.48599 37076 ft 460 kts 196°
2026-05-07 13:51 52.03792 8.45869 37079 ft 460 kts 196°
2026-05-07 13:51 51.97613 8.43132 37082 ft 460 kts 196°
2026-05-07 13:52 51.91429 8.40404 37080 ft 461 kts 196°
2026-05-07 13:52 51.85237 8.37700 37079 ft 461 kts 195°
2026-05-07 13:53 51.79046 8.35000 37078 ft 461 kts 196°
2026-05-07 13:53 51.72897 8.32316 37078 ft 461 kts 196°
2026-05-07 13:54 51.66713 8.29620 37081 ft 460 kts 196°
2026-05-07 13:54 51.60523 8.26935 37076 ft 460 kts 196°
2026-05-07 13:55 51.54336 8.24266 37077 ft 460 kts 196°
2026-05-07 13:55 51.48146 8.21583 37072 ft 460 kts 196°
2026-05-07 13:56 51.41965 8.18919 37068 ft 460 kts 196°
2026-05-07 13:56 51.35776 8.16272 37068 ft 460 kts 196°
2026-05-07 13:57 51.29588 8.13625 37070 ft 460 kts 196°
2026-05-07 13:57 51.23399 8.10984 37066 ft 461 kts 196°
2026-05-07 13:58 51.17241 8.08371 37062 ft 461 kts 196°
2026-05-07 13:58 51.11040 8.05747 37071 ft 461 kts 195°